• Join FlightAware (Why Join?)
  • Login
  • US Flag 
08:11PM EST


 

Airport Tracker/Info


-or-


 

Live Flight TrackerFlight Track Log ✈ UPS218 ✈ 25-Apr-2014 ✈ KPHL - KSDF

Flight Track Log - Related Links

Times and Time Zones

All times are in EDT time to prevent confusion due to time zone crossing. See the UPS218 flight status page for this flight to view local times or setup timezone preferences in your user account.

Time Position Orientation Groundspeed Altitude Reporting Facility
EDT Latitude Longitude Course Direction KTS MPH feet Rate Location/Type
11:01AM 39.8753 -75.2234 75° East 157 181 800  Level FlightAware ADS-B (KPHL)
11:02AM 39.8960 -75.1639 66° East 223 257 2,800 2,053 Climbing FlightAware ADS-B (KPHL)
11:02AM 39.9033 -75.1420 67° East 235 270 3,400 2,087 Climbing FlightAware ADS-B (KPHL)
11:03AM 39.9199 -75.1015 45° Northeast 274 315 4,400 2,769 Climbing FlightAware ADS-B (KPHL)
11:03AM 39.9295 -75.0930 20° North 277 319 5,200 3,200 Climbing FlightAware ADS-B (KPHL)
11:03AM 39.9553 -75.0881 354° North 273 314 6,000 2,833 Climbing FlightAware ADS-B (KPHL)
11:03AM 39.9733 -75.0946 342° North 269 310 6,900 2,933 Climbing FlightAware ADS-B (KPHL)
11:04AM 39.9989 -75.1284 297° West 273 314 8,200 2,700 Climbing FlightAware ADS-B (KPHL)
11:04AM 40.0005 -75.1769 258° West 275 316 9,600 1,759 Climbing FlightAware ADS-B (KPHL)
11:05AM 39.9933 -75.2157 257° West 279 321 9,900 409 Climbing FlightAware ADS-B (KPHL)
11:05AM 39.9874 -75.2496 257° West 278 320 9,900  Level FlightAware ADS-B (KPHL)
11:05AM 39.9833 -75.2734 258° West 276 318 9,900  Level FlightAware ADS-B (KPHL)
11:06AM 39.9792 -75.2988 258° West 291 335 9,900  Level FlightAware ADS-B (KPHL)
11:06AM 39.9698 -75.3578 258° West 346 398 9,900  Level FlightAware ADS-B (KPHL)
11:07AM 39.9565 -75.4391 258° West 357 411 9,900  Level FlightAware ADS-B (KPHL)
11:07AM 39.9440 -75.5145 258° West 358 412 9,900 102 Level FlightAware ADS-B (KPHL)
11:08AM 39.9352 -75.5682 258° West 359 413 10,000 2,189 Climbing FlightAware ADS-B (KPHL)
11:09AM 39.9195 -75.6722 263° West 358 412 12,600 2,968 Climbing FlightAware ADS-B (KPHL)
11:10AM 39.9176 -75.7004 268° West 379 436 14,700 1,586 Climbing FlightAware ADS-B (YXSG)
11:10AM 39.9145 -75.8404 269° West 383 441 14,900 1,663 Climbing FlightAware ADS-B (YXSG)
11:11AM 39.9127 -75.9428 269° West 386 444 17,000 2,903 Climbing FlightAware ADS-B (YXSG)
11:12AM 39.9099 -76.0718 268° West 398 458 19,400 2,894 Climbing FlightAware ADS-B (YXSG)
11:12AM 39.9080 -76.1779 270° West 406 467 21,100 2,500 Climbing FlightAware ADS-B (YXSG)
11:13AM 39.9057 -76.2557 259° West 403 464 22,400 2,123 Climbing FlightAware ADS-B (YXSG)
11:13AM 39.8908 -76.3259 250° West 411 473 23,400 2,143 Climbing FlightAware ADS-B (YXSG)
11:14AM 39.8600 -76.4228 248° West 426 490 24,900 2,308 Climbing FlightAware ADS-B (YXSG)
11:15AM 39.8387 -76.4889 247° West 433 498 26,400 2,203 Climbing FlightAware ADS-B (YXSG)
11:15AM 39.7982 -76.6126 247° West 445 512 27,800 2,625 Climbing FlightAware ADS-B (YXSG)
11:16AM 39.7663 -76.7100 247° West 436 502 29,900 3,000 Climbing FlightAware ADS-B (YXSG)
11:17AM 39.7366 -76.8004 247° West 427 491 31,800 2,500 Climbing FlightAware ADS-B (YXSG)
11:17AM 39.7006 -76.9097 247° West 427 491 33,400 2,000 Climbing FlightAware ADS-B (YXSG)
11:19AM 39.6617 -77.0275 247° West 424 488 35,400 1,592 Climbing FlightAware ADS-B (YXSG)
11:19AM 39.6617 -77.0275 247° West 422 486 36,000 514 Climbing FlightAware ADS-B (YXSG)
11:20AM 39.6063 -77.1942 247° West 419 482 36,000  Level FlightAware ADS-B (YXSG)
11:20AM 39.5831 -77.2636 247° West 415 478 36,000  Level FlightAware ADS-B (YXSG)
11:21AM 39.5279 -77.4280 247° West 416 479 36,000  Level FlightAware ADS-B (KDAA)
11:22AM 39.5057 -77.4940 247° West 417 480 36,000  Level FlightAware ADS-B (KDAA)
11:22AM 39.4843 -77.5575 247° West 418 481 36,000  Level FlightAware ADS-B (KDAA)
11:23AM 39.4620 -77.6239 247° West 418 481 36,000  Level FlightAware ADS-B (KDAA)
11:23AM 39.4403 -77.6874 247° West 418 481 36,000  Level FlightAware ADS-B (KDAA)
11:24AM 39.4112 -77.7730 247° West 418 481 36,000  Level FlightAware ADS-B (KDAA)
11:25AM 39.3799 -77.8622 248° West 418 481 36,000  Level FlightAware ADS-B (KDAA)
11:26AM 39.3362 -78.0133 252° West 418 481 36,000  Level FlightAware ADS-B (KDAA)
11:27AM 39.2773 -78.2590 253° West 416 479 36,000  Level FlightAware ADS-B (KDAA)
11:28AM 39.2518 -78.3636 253° West 415 478 36,000  Level FlightAware ADS-B (KDAA)
11:29AM 39.2007 -78.5696 253° West 409 471 36,000  Level FlightAware ADS-B (KDAA)
11:30AM 39.1868 -78.6248 253° West 410 472 36,000  Level FlightAware ADS-B (KDAA)
11:31AM 39.1458 -78.7836 253° West 409 471 36,000 -92 Level Washington Center
11:32AM 39.1122 -78.9242 253° West 409 471 35,800 -387 Descending Washington Center
11:33AM 39.0769 -79.0628 252° West 409 471 35,200 -378 Descending Washington Center
11:34AM 39.0419 -79.1981 252° West 401 461 35,000 -97 Descending Washington Center
11:35AM 38.9981 -79.3672 252° West 413 475 35,000  Level Washington Center
11:36AM 38.9622 -79.5067 252° West 413 475 35,000  Level Washington Center
11:37AM 38.9236 -79.6531 251° West 406 467 35,000  Level Washington Center
11:38AM 38.8903 -79.7864 252° West 406 467 35,000  Level Washington Center
11:39AM 38.8542 -79.9203 251° West 406 467 35,000  Level Washington Center
11:40AM 38.8122 -80.0800 251° West 406 467 35,000  Level Washington Center
11:41AM 38.7767 -80.2150 251° West 407 468 35,000 290 Level Washington Center
11:42AM 38.7406 -80.3492 251° West 409 471 35,600 480 Climbing Washington Center
11:43AM 38.6964 -80.5119 251° West 415 478 36,000 192 Climbing Washington Center
11:45AM 38.6611 -80.6425 251° West 407 468 36,000  Level Washington Center
11:46AM 38.6258 -80.7733 251° West 404 465 36,000  Level Washington Center
11:47AM 38.5839 -80.9322 251° West 404 465 36,000  Level Washington Center
11:48AM 38.5475 -81.0644 251° West 404 465 36,000  Level Washington Center
11:49AM 38.5111 -81.1956 251° West 404 465 36,000  Level Washington Center
11:50AM 38.4678 -81.3542 251° West 405 466 36,000  Level Washington Center
11:51AM 38.4308 -81.4856 250° West 405 466 36,000  Level Washington Center
11:52AM 38.3950 -81.6161 251° West 405 466 36,000 -238 Level Washington Center
11:53AM 38.3519 -81.7736 251° West 404 465 35,500 -726 Descending Washington Center
11:54AM 38.3142 -81.9075 250° West 410 472 34,500 -979 Descending Washington Center
11:55AM 38.2614 -82.0958 250° West 421 484 33,200 -797 Descending Indianapolis Center
11:56AM 38.2208 -82.2383 250° West 426 490 32,600 -184 Descending Indianapolis Center
12:02PM 37.9864 -83.0487 250° West 431 496 32,000 -89 Descending FlightAware ADS-B
12:03PM 37.9338 -83.2271 250° West 427 491 32,000 -552 Level FlightAware ADS-B
12:04PM 37.8756 -83.4236 250° West 424 488 30,500 -1,102 Descending Indianapolis Center
12:10PM 37.6325 -84.2278 249° West 400 460 23,900 -1,256 Descending FlightAware ADS-B (KCVG)
12:12PM 37.5842 -84.3842 249° West 391 450 21,500 -1,671 Descending Indianapolis Center
12:13PM 37.5458 -84.5089 249° West 384 442 20,000 -2,000 Descending Indianapolis Center
12:14PM 37.5069 -84.6331 248° West 364 419 17,400 -2,634 Descending Indianapolis Center
12:15PM 37.5039 -84.7431 268° West 327 376 14,600 -2,439 Descending Indianapolis Center
12:16PM 37.5619 -84.8272 311° West 321 369 12,400 -1,854 Descending Indianapolis Center
12:17PM 37.6228 -84.9094 313° West 320 368 10,800 -1,113 Descending Indianapolis Center
12:18PM 37.6933 -85.0067 313° West 321 369 10,100 -390 Descending Indianapolis Center
12:19PM 37.7511 -85.0869 312° West 289 333 10,000 -49 Descending Indianapolis Center
12:20PM 37.7989 -85.1531 312° West 246 283 10,000 -49 Level Indianapolis Center
12:21PM 37.8436 -85.2147 313° West 244 281 9,900 -683 Descending Indianapolis Center
12:22PM 37.8886 -85.2775 312° West 242 278 8,600 -1,355 Descending Indianapolis Center
12:23PM 37.9331 -85.3394 312° West 236 272 7,100 -1,268 Descending Indianapolis Center
12:24PM 37.9739 -85.3961 312° West 211 243 6,000 -927 Descending Indianapolis Center
12:25PM 38.0142 -85.4339 324° Northwest 180 207 5,200 -927 Descending Indianapolis Center
12:26PM 38.0656 -85.4661 334° Northwest 175 201 4,100 -585 Descending Indianapolis Center
12:27PM 38.1081 -85.4925 334° Northwest 175 201 4,000 -505 Descending Indianapolis Center
12:29PM 38.1333 -85.6167 302° West 139 160 2,400 -686 Descending Louisville TRACON
12:31PM 38.1667 -85.7333 302° West  Level FlightAware Approximate
12:38PM 38.1741 -85.7365 302° West  Level Estimated
12:39PM 38.1741 -85.7365 302° West  Level Estimated
12:40PM 38.1741 -85.7365 302° West  Level Estimated